Bellingham, WA
on Tuesday, November 13, 2012

Tuesday
Previous Day Next Day
Daily Summary
 ActualAverageRecord
Temperature
Mean Temperature °F 44°F  
Max Temperature 52°F 50°F 61°F (1975)
Min Temperature 42°F 37°F 10°F (1955)
Degree Days
Heating Degree Days 18 21  
Month to date heating degree days 258  
Cooling Degree Days 0 0  
Month to date cooling degree days 0  
Year to date cooling degree days 42  
Moisture
Dew Point 45°F   
Average Humidity 92    
Maximum Humidity 100    
Minimum Humidity 83    
Precipitation
Precipitation 0.07 in 0.20 in 0.94 in (1998)
Month to date precipitation 2.53  
Year to date precipitation 28.34  
Wind
Wind Speed 4 mph   
Max Wind Speed 9 mph   
Max Gust Speed 17 mph   
Visibility 7 miles   
Events Rain   

Key: T is trace of precipitation, MM is missing value
Source: NWS Daily Summary
Time(PST)TemperatureDew PointHumidity Pressure Visibility Wind DirectionWind SpeedGust SpeedPrecipitationEvents Conditions
12:03 AM 48.2°F 44.6°F 87% 30.18 in 10.0 miles South 5.8 mph - 0.00 in Rain Light Rain
12:53 AM 48.9°F 45.0°F 86% 30.21 in 10.0 miles SSE 5.8 mph - 0.00 in   Mostly Cloudy
1:49 AM 50.0°F 46.4°F 87% 30.18 in 10.0 miles South 6.9 mph - N/A   Mostly Cloudy
1:53 AM 50.0°F 46.0°F 86% 30.20 in 10.0 miles SSE 8.1 mph - N/A   Overcast
2:23 AM 50.0°F 46.4°F 87% 30.19 in 10.0 miles SSE 6.9 mph - N/A   Overcast
2:32 AM 50.0°F 46.4°F 87% 30.18 in 10.0 miles South 8.1 mph - N/A   Overcast
2:45 AM 50.0°F 46.4°F 87% 30.18 in 10.0 miles SSE 9.2 mph 17.3 mph 0.00 in Rain Light Rain
2:53 AM 50.0°F 46.0°F 86% 30.21 in 10.0 miles SSE 9.2 mph - 0.00 in Rain Light Rain
3:07 AM 50.0°F 46.4°F 87% 30.18 in 8.0 miles SSE 8.1 mph - 0.00 in Rain Light Rain
3:22 AM 50.0°F 46.4°F 87% 30.18 in 10.0 miles South 6.9 mph - 0.00 in Rain Light Rain
3:53 AM 48.9°F 46.9°F 93% 30.20 in 10.0 miles South 5.8 mph - 0.00 in Rain Light Rain
4:36 AM 48.2°F 46.4°F 93% 30.17 in 10.0 miles SSE 3.5 mph - 0.00 in Rain Light Rain
4:53 AM 48.0°F 46.0°F 93% 30.19 in 10.0 miles Calm Calm - 0.00 in   Overcast
5:53 AM 46.0°F 45.0°F 96% 30.20 in 5.0 miles Calm Calm - N/A   Mostly Cloudy
6:53 AM 45.0°F 44.1°F 97% 30.20 in 4.0 miles NNE 3.5 mph - N/A   Overcast
6:57 AM 44.6°F 42.8°F 93% 30.17 in 2.5 miles North 4.6 mph - N/A   Overcast
7:13 AM 44.6°F 42.8°F 93% 30.18 in 5.0 miles NNW 3.5 mph - N/A   Overcast
7:28 AM 42.8°F 42.8°F 100% 30.18 in 7.0 miles Calm Calm - N/A   Overcast
7:44 AM 44.6°F 42.8°F 93% 30.18 in 5.0 miles Calm Calm - N/A   Overcast
7:53 AM 44.1°F 43.0°F 96% 30.21 in 6.0 miles Calm Calm - N/A   Overcast
8:05 AM 44.6°F 42.8°F 93% 30.18 in 1.8 miles Calm Calm - 0.03 in Rain Rain
8:17 AM 44.6°F 42.8°F 93% 30.18 in 3.0 miles Calm Calm - 0.06 in Rain Light Rain
8:44 AM 44.6°F 42.8°F 93% 30.18 in 7.0 miles Calm Calm - 0.06 in   Overcast
8:53 AM 45.0°F 44.1°F 97% 30.21 in 7.0 miles Calm Calm - 0.06 in   Overcast
9:53 AM 46.0°F 44.1°F 93% 30.22 in 7.0 miles Calm Calm - N/A   Overcast
10:53 AM 46.0°F 45.0°F 96% 30.21 in 6.0 miles NW 4.6 mph - 0.00 in Rain Light Rain
11:53 AM 48.9°F 46.9°F 93% 30.19 in 10.0 miles Calm Calm - 0.00 in Rain Light Rain
12:19 PM 50.0°F 46.4°F 87% 30.16 in 10.0 miles Calm Calm - 0.00 in   Overcast
12:53 PM 52.0°F 46.9°F 83% 30.17 in 10.0 miles Calm Calm - 0.00 in   Overcast
1:53 PM 48.9°F 46.9°F 93% 30.17 in 10.0 miles Calm Calm - N/A   Overcast
2:53 PM 48.9°F 48.0°F 97% 30.16 in 7.0 miles Calm Calm - 0.00 in   Overcast
3:18 PM 48.2°F 46.4°F 93% 30.14 in 7.0 miles Calm Calm - N/A   Overcast
3:48 PM 48.2°F 46.4°F 93% 30.14 in 7.0 miles North 3.5 mph - 0.00 in Rain Light Rain
3:53 PM 48.0°F 46.0°F 93% 30.17 in 7.0 miles Calm Calm - 0.00 in Rain Light Rain
4:26 PM 48.2°F 46.4°F 93% 30.14 in 10.0 miles Calm Calm - 0.00 in Rain Light Rain
4:53 PM 46.9°F 46.0°F 97% 30.16 in 10.0 miles Calm Calm - 0.00 in Rain Light Rain
5:43 PM 46.4°F 44.6°F 93% 30.13 in 6.0 miles Calm Calm - 0.00 in Rain Light Rain
5:53 PM 46.9°F 45.0°F 93% 30.16 in 5.0 miles Calm Calm - 0.00 in Rain Light Rain
6:17 PM 46.4°F 44.6°F 93% 30.13 in 5.0 miles Calm Calm - 0.00 in Rain Light Rain
6:37 PM 46.4°F 44.6°F 93% 30.13 in 5.0 miles Calm Calm - 0.00 in Rain Light Rain
6:53 PM 46.0°F 45.0°F 96% 30.15 in 4.0 miles Calm Calm - 0.00 in Rain Light Rain
7:12 PM 46.4°F 44.6°F 93% 30.13 in 3.0 miles Calm Calm - 0.00 in Rain Light Rain
7:53 PM 46.0°F 45.0°F 96% 30.16 in 3.0 miles Calm Calm - 0.00 in Rain Light Rain
8:00 PM 46.4°F 44.6°F 93% 30.13 in 3.0 miles North 3.5 mph - 0.00 in Rain Light Rain
8:21 PM 46.4°F 44.6°F 93% 30.14 in 2.5 miles Calm Calm - 0.01 in Rain Light Rain
8:33 PM 46.4°F 44.6°F 93% 30.14 in 4.0 miles Calm Calm - 0.01 in Rain Light Rain
8:53 PM 46.0°F 45.0°F 96% 30.17 in 5.0 miles Calm Calm - 0.01 in   Overcast
9:01 PM 46.4°F 44.6°F 93% 30.15 in 5.0 miles Calm Calm - N/A   Overcast
9:53 PM 46.0°F 45.0°F 96% 30.17 in 7.0 miles Calm Calm - 0.00 in Rain Light Rain
10:35 PM 46.4°F 44.6°F 93% 30.16 in 4.0 miles Calm Calm - 0.00 in Rain Light Rain
10:53 PM 46.0°F 45.0°F 96% 30.19 in 4.0 miles Calm Calm - 0.00 in Rain Light Rain
11:53 PM 46.0°F 45.0°F 96% 30.20 in 4.0 miles Calm Calm - 0.00 in   Overcast
Moon Phase
Nov. 13 Nov. 13 Nov. 20 Nov. 28 Dec. 06
Sunrise:07:16 AM (PST) Moon Rise:07:03 AM (PST)11/13
Sunset:04:31 PM (PST) Moon Set:04:26 PM (PST)11/13

Copyright © 2014 The Weather Underground, Inc.